EW7666 Weather Reports


Display with metric or nautical units.
time (UTC)temp
F
wind
direction
speed
MPH
gust
MPH
rain 1hr
in
rain 24hr
in
rain mn
in
humidity
%
barometer
mb
20181217114829 45 268 0.0 0.0 0.00 0.00 0.00 99 1024.7
20181217114802 45 268 0.0 0.0 0.00 2.21 0.00 99 1024.4
20181217114321 45 267 0.0 0.0 0.00 0.00 0.00 99 1024.7
20181217114301 45 267 0.0 0.0 0.00 2.24 0.00 99 1024.3
20181217113816 45 267 0.0 0.0 0.00 0.00 0.00 99 1024.6
20181217113801 45 267 0.0 0.0 0.00 2.27 0.00 99 1024.3
20181217113317 45 267 0.0 0.0 0.00 0.00 0.00 99 1024.7
20181217113300 45 267 0.0 0.0 0.00 2.29 0.00 99 1024.3
20181217112820 46 267 0.0 1.0 0.00 0.00 0.00 99 1024.7
20181217112759 46 267 0.0 1.0 0.00 2.32 0.00 99 1024.3
20181217112327 46 267 0.0 1.0 0.00 0.00 0.00 99 1024.6
20181217112249 46 267 0.0 1.0 0.00 2.35 0.00 99 1024.2
20181217111817 46 269 0.0 1.0 0.00 0.00 0.00 99 1024.5
20181217111727 46 269 0.0 2.0 0.00 2.37 0.00 99 1024.1
20181217111215 46 277 0.0 2.0 2.70 2.40 0.00 99 1024.0
20181217110824 46 279 0.0 2.0 0.00 0.00 0.00 99 1024.4
20181217110708 46 279 0.0 2.0 5.40 2.43 0.00 99 1024.0
20181217110205 46 246 0.0 2.0 8.10 2.45 0.00 99 1024.0
20181217105822 46 236 0.0 1.0 0.00 0.00 0.00 100 1024.4
20181217105704 46 271 0.0 2.0 1.08 2.48 0.00 99 1024.0
20181217105319 46 271 0.0 2.0 0.00 0.00 0.00 100 1024.4
20181217105201 46 271 0.0 2.0 1.35 2.51 0.00 100 1024.1
20181217104823 46 279 0.0 2.0 0.00 0.00 0.00 100 1024.4
20181217104702 46 258 0.0 1.0 1.62 2.54 0.00 100 1023.9
20181217104333 46 277 0.0 1.0 0.00 0.00 0.00 100 1024.2
20181217104159 46 277 0.0 1.0 1.89 2.56 0.00 100 1023.8
20181217103833 46 277 0.0 1.0 0.00 0.00 0.00 100 1024.3
20181217103655 46 277 0.0 1.0 2.16 2.59 0.00 100 1024.0
20181217103335 46 277 0.0 1.0 0.00 0.00 0.00 100 1024.5
20181217103155 46 277 0.0 1.0 2.43 2.62 0.00 100 1024.0
20181217102829 46 277 0.0 1.0 0.00 0.00 0.00 100 1024.3
20181217102653 46 277 0.0 1.0 2.70 2.64 0.00 100 1023.8
20181217102330 46 277 0.0 1.0 0.00 0.00 0.00 100 1024.2
20181217102151 46 277 0.0 1.0 2.97 2.67 0.00 100 1023.8
20181217101816 46 277 0.0 1.0 0.00 0.00 0.00 99 1024.2
20181217101647 46 277 0.0 1.0 3.24 2.70 0.00 99 1023.8
20181217101336 45 284 0.0 1.0 0.00 0.00 0.00 99 1024.2
20181217101133 45 284 0.0 1.0 3.24 2.70 0.00 99 1023.8
20181217100825 45 284 0.0 1.0 0.00 0.00 0.00 99 1024.2
20181217100607 45 284 0.0 1.0 3.24 2.70 0.00 99 1023.8
20181217100329 45 284 0.0 1.0 0.00 0.00 0.00 99 1024.3
20181217100107 46 284 0.0 1.0 3.24 2.70 0.00 99 1023.8
20181217095828 46 284 0.0 1.0 0.00 0.00 0.00 99 1024.2
20181217095603 46 258 0.0 1.0 3.24 2.70 0.00 99 1023.9
20181217095330 46 259 0.0 1.0 0.00 0.00 0.00 99 1024.5
20181217095059 46 259 0.0 0.0 3.24 2.70 0.00 99 1024.0
20181217094817 46 227 0.0 0.0 0.00 0.00 0.00 99 1024.4
20181217094559 46 227 0.0 1.0 3.24 2.70 0.00 99 1024.1
20181217094318 46 227 0.0 1.0 0.00 0.00 0.00 99 1024.6
20181217094100 46 225 0.0 1.0 3.24 2.70 0.00 99 1024.0
20181217093829 46 224 0.0 1.0 0.00 0.00 0.00 99 1024.4
20181217093527 46 234 0.0 1.0 3.24 2.70 0.00 99 1024.0
20181217093322 46 234 0.0 1.0 0.00 0.00 0.00 99 1024.5
20181217093007 46 234 0.0 1.0 2.97 2.67 0.00 99 1024.0
20181217092823 46 234 0.0 1.0 0.00 0.00 0.00 99 1024.4
20181217092501 46 234 0.0 1.0 3.24 2.67 0.00 99 1024.0
20181217092326 46 250 0.0 1.0 0.00 0.00 0.00 100 1024.3
20181217091959 46 262 0.0 1.0 3.24 2.70 0.00 100 1023.8
20181217091826 46 262 0.0 1.0 0.00 0.00 0.00 100 1024.3
20181217091447 46 263 0.0 1.0 3.24 2.70 0.00 100 1024.0
20181217091333 46 263 0.0 1.0 0.00 0.00 0.00 100 1024.4
20181217090919 46 275 0.0 1.0 3.24 2.67 0.00 100 1024.0
20181217090407 46 275 0.0 1.0 2.97 2.67 0.00 100 1024.1
20181217090327 46 275 0.0 1.0 0.00 0.00 0.00 100 1024.5
20181217085903 46 275 0.0 1.0 2.70 2.67 0.00 100 1024.3
20181217085822 46 246 0.0 1.0 0.00 0.00 0.00 100 1024.7
20181217085403 46 245 0.0 2.0 2.43 2.67 0.00 100 1024.4
20181217085331 46 246 0.0 1.0 0.00 0.00 0.00 100 1024.7
20181217084902 46 245 0.0 2.0 2.16 2.67 0.00 100 1024.3
20181217084815 46 245 0.0 2.0 0.00 0.00 0.00 100 1024.7
20181217084353 45 240 0.0 2.0 1.89 2.64 0.00 100 1024.3
20181217084319 45 240 0.0 2.0 0.00 0.00 0.00 99 1024.6
20181217083849 45 227 0.0 1.0 1.62 2.64 0.00 99 1024.0
20181217083831 45 227 0.0 1.0 0.00 0.00 0.00 99 1024.4
20181217083337 45 227 0.0 1.0 1.35 2.64 0.00 99 1024.2
20181217083332 45 227 0.0 1.0 0.00 0.00 0.00 99 1024.6
20181217082833 45 227 0.0 1.0 1.08 2.64 0.00 99 1024.4
20181217082815 45 227 0.0 1.0 0.00 0.00 0.00 99 1024.8
20181217082329 45 227 0.0 1.0 8.10 2.64 0.00 99 1024.4
20181217082325 45 227 0.0 1.0 0.00 0.00 0.00 99 1024.8
20181217081829 45 227 0.0 1.0 5.40 2.64 0.00 99 1024.6
20181217081825 45 227 0.0 1.0 0.00 0.00 0.00 99 1025.0
20181217081325 45 227 0.0 1.0 2.70 2.64 0.00 99 1024.6
20181217081315 45 227 0.0 1.0 0.00 0.00 0.00 99 1024.9
20181217080819 45 244 0.0 0.0 0.00 0.00 0.00 99 1025.0
20181217080808 45 244 0.0 0.0 0.00 2.64 0.00 99 1024.6
20181217080328 45 243 0.0 0.0 0.00 0.00 0.00 99 1024.4
20181217080303 45 244 0.0 0.0 0.00 2.67 0.00 99 1024.0
20181217075830 45 243 0.0 0.0 0.00 0.00 0.00 99 1024.6
20181217075759 45 244 0.0 0.0 0.00 2.70 0.00 99 1024.2
20181217075326 45 243 0.0 0.0 0.00 0.00 0.00 99 1024.7
20181217075258 46 243 0.0 0.0 0.00 2.73 0.00 99 1024.3
20181217074819 46 243 0.0 0.0 0.00 0.00 0.00 99 1024.8
20181217074757 46 244 0.0 0.0 0.00 2.75 0.00 99 1024.4
20181217074323 46 244 0.0 0.0 0.00 0.00 0.00 99 1024.8
20181217074255 46 244 0.0 0.0 0.00 2.78 0.00 99 1024.4
20181217073827 46 244 0.0 0.0 0.00 0.00 0.00 99 1024.9
20181217073744 46 244 0.0 0.0 0.00 2.81 0.00 99 1024.6
20181217073315 46 244 0.0 0.0 0.00 0.00 0.00 99 1024.9
20181217073243 46 244 0.0 0.0 0.00 2.83 0.00 99 1024.6
20181217072818 46 244 0.0 0.0 0.00 0.00 0.00 99 1025.0
20181217072703 46 244 0.0 0.0 0.00 2.86 0.00 99 1024.6
20181217072325 46 244 0.0 0.0 0.00 0.00 0.00 99 1024.9
20181217072203 46 244 0.0 0.0 0.00 2.89 0.00 99 1024.5
20181217071829 46 244 0.0 0.0 0.00 0.00 0.00 99 1024.9
20181217071658 46 244 0.0 0.0 0.00 2.91 0.00 99 1024.5
20181217071331 46 244 0.0 0.0 0.00 0.00 0.00 99 1024.7
20181217071159 46 243 0.0 0.0 0.00 2.94 0.00 99 1024.3
20181217070830 46 243 0.0 0.0 0.00 0.00 0.00 99 1024.4
20181217070625 46 243 0.0 0.0 0.00 2.97 0.00 99 1024.0
20181217070333 46 243 0.0 0.0 0.00 0.00 0.00 99 1024.4
20181217070122 46 243 0.0 0.0 0.00 3.00 0.00 99 1024.0
20181217065814 46 244 0.0 0.0 0.00 0.00 0.00 99 1024.4
20181217065603 46 244 0.0 0.0 0.00 3.02 0.00 99 1024.0
20181217065318 46 244 0.0 0.0 0.00 0.00 0.00 98 1024.1
20181217065101 46 244 0.0 0.0 0.00 3.05 0.00 98 1023.6
20181217064827 46 244 0.0 0.0 0.00 0.00 0.00 98 1023.9
20181217064535 46 244 0.0 0.0 0.00 3.05 0.00 98 1023.5
20181217064329 47 243 0.0 0.0 0.00 0.00 0.00 98 1024.0
20181217064023 47 243 0.0 0.0 0.00 3.08 0.00 99 1023.6
20181217063834 47 244 0.0 0.0 0.00 0.00 0.00 99 1023.9
20181217063519 47 243 0.0 0.0 0.00 3.10 0.00 98 1023.7
20181217063323 47 243 0.0 0.0 0.00 0.00 0.00 98 1024.4
20181217063017 47 244 0.0 0.0 0.00 3.13 0.00 98 1024.2
20181217062819 47 244 0.0 0.0 0.00 0.00 0.00 98 1024.7
20181217062510 47 244 0.0 0.0 0.00 3.16 0.00 98 1024.3
20181217062328 47 244 0.0 0.0 0.00 0.00 0.00 98 1024.7
20181217061949 47 244 0.0 0.0 0.00 3.21 0.00 98 1024.1
20181217061837 47 243 0.0 0.0 0.00 0.00 0.00 98 1024.4
20181217061432 47 243 0.0 0.0 0.00 3.24 0.00 98 1023.8
20181217061319 47 243 0.0 0.0 0.00 0.00 0.00 98 1024.4
20181217060913 47 243 0.0 1.0 0.00 3.27 0.00 98 1024.4
20181217060830 47 244 0.0 1.0 0.00 0.00 0.00 98 1024.9
20181217060413 47 244 0.0 1.0 0.00 3.29 0.00 98 1024.2
20181217060325 47 244 0.0 1.0 0.00 0.00 0.00 98 1024.6
20181217055904 47 244 0.0 1.0 0.00 3.32 0.00 98 1024.3
20181217055829 47 244 0.0 1.0 0.00 0.00 0.00 98 1024.8
20181217055354 47 243 0.0 1.0 0.00 3.35 0.00 98 1024.6
20181217055323 47 244 1.0 1.0 0.00 0.00 0.00 98 1025.0
20181217054852 47 242 0.0 1.0 0.00 3.37 0.00 98 1024.4
20181217054828 47 242 0.0 1.0 0.00 0.00 0.00 98 1024.7
20181217054349 47 242 0.0 1.0 2.70 3.40 0.00 98 1024.3
20181217054331 47 242 0.0 1.0 0.00 0.00 0.00 98 1024.7
20181217053837 47 242 0.0 1.0 5.40 3.43 0.00 98 1024.4
20181217053833 47 242 0.0 1.0 0.00 0.00 0.00 98 1024.8
20181217053325 47 242 0.0 1.0 5.40 3.45 0.00 98 1024.6
20181217053320 47 242 0.0 1.0 0.00 0.00 0.00 98 1024.9
20181217052825 47 242 0.0 0.0 0.00 0.00 0.00 98 1024.9
20181217052813 47 242 0.0 0.0 5.40 3.48 0.00 98 1024.6
20181217052327 47 242 0.0 0.0 0.00 0.00 0.00 98 1024.8
20181217052306 47 242 0.0 0.0 5.40 3.51 0.00 98 1024.4
20181217051835 47 242 0.0 0.0 0.00 0.00 0.00 98 1024.8
20181217051806 47 242 0.0 0.0 5.40 3.54 0.00 98 1024.4
20181217051335 47 242 0.0 0.0 0.00 0.00 0.00 98 1024.9
20181217051301 47 242 0.0 1.0 5.40 3.56 0.00 98 1024.5
20181217050830 47 242 0.0 1.0 0.00 0.00 0.00 97 1024.9
20181217050748 47 242 0.0 1.0 5.40 3.59 0.00 97 1024.6
20181217050331 47 265 0.0 0.0 0.00 0.00 0.00 97 1025.1
20181217050231 47 265 0.0 0.0 5.40 3.62 0.00 97 1024.7
20181217045825 48 264 0.0 0.0 0.00 0.00 0.00 97 1025.2
20181217045727 47 265 0.0 0.0 5.40 3.64 0.00 97 1024.9
20181217045226 48 265 0.0 0.0 5.40 3.67 0.00 97 1024.8
20181217044815 48 264 0.0 1.0 0.00 0.00 0.00 97 1025.2
20181217044725 48 264 0.0 1.0 5.40 3.70 0.00 96 1024.8
20181217044330 48 264 0.0 1.0 0.00 0.00 0.00 96 1025.4
20181217044222 48 265 0.0 1.0 2.70 3.70 0.00 96 1025.0
20181217043815 48 263 0.0 2.0 0.00 0.00 0.00 96 1025.5
20181217043717 48 263 0.0 2.0 0.00 3.67 0.00 96 1025.1
20181217043322 49 275 0.0 2.0 0.00 0.00 0.00 96 1025.4
20181217043212 49 275 1.0 2.0 0.00 3.67 0.00 96 1025.0
20181217042836 49 275 1.0 2.0 0.00 0.00 0.00 96 1025.4
20181217042703 49 276 1.0 2.0 0.00 3.67 0.00 97 1025.0
20181217042332 49 272 1.0 2.0 0.00 0.00 0.00 97 1025.3
20181217042202 49 271 0.0 2.0 0.00 3.67 0.00 97 1024.8
20181217041826 48 280 0.0 2.0 0.00 0.00 0.00 97 1025.1
20181217041701 48 280 0.0 2.0 0.00 3.67 0.00 97 1024.6
20181217041315 48 280 0.0 2.0 0.00 0.00 0.00 97 1025.0
20181217041154 48 280 0.0 2.0 0.00 3.67 0.00 97 1024.5
20181217040829 48 262 0.0 0.0 0.00 0.00 0.00 97 1025.0
20181217040654 48 252 0.0 0.0 0.00 3.67 0.00 97 1024.6
20181217040326 48 252 0.0 0.0 0.00 0.00 0.00 97 1025.0
20181217040124 48 252 0.0 0.0 0.00 3.67 0.00 97 1024.6
20181217035824 48 252 0.0 0.0 0.00 0.00 0.00 97 1024.9
20181217035607 48 252 0.0 0.0 0.00 3.67 0.00 97 1024.6
20181217035329 48 252 0.0 0.0 0.00 0.00 0.00 97 1025.0
20181217035028 48 252 0.0 0.0 0.00 3.67 0.00 97 1024.6
20181217034825 48 252 0.0 0.0 0.00 0.00 0.00 97 1024.9
20181217034512 48 252 0.0 0.0 0.00 3.67 0.00 97 1024.6
20181217034328 48 252 0.0 1.0 0.00 0.00 0.00 97 1024.9
20181217034004 48 252 0.0 1.0 0.00 3.67 0.00 97 1024.5
20181217033822 48 252 0.0 1.0 0.00 0.00 0.00 97 1024.9
20181217033505 48 252 0.0 1.0 0.00 3.67 0.00 97 1024.5
20181217033321 48 252 0.0 1.0 0.00 0.00 0.00 97 1024.9
20181217033000 48 251 0.0 1.0 0.00 3.67 0.00 97 1024.4
20181217032830 48 251 0.0 2.0 0.00 0.00 0.00 97 1024.7
20181217032420 48 246 0.0 1.0 0.00 3.67 0.00 97 1024.4
20181217032415 48 246 0.0 1.0 0.00 0.00 0.00 97 1024.8
20181217031852 48 245 0.0 1.0 0.00 3.67 0.00 97 1024.4
20181217031829 48 246 0.0 1.0 0.00 0.00 0.00 97 1024.8
20181217031338 48 246 0.0 1.0 0.00 3.67 0.00 97 1024.4
20181217031333 48 246 0.0 1.0 0.00 0.00 0.00 97 1024.8
20181217030835 48 245 0.0 1.0 0.00 3.67 0.00 97 1024.5
20181217030830 48 245 0.0 1.0 0.00 0.00 0.00 97 1024.9
20181217030331 48 308 0.0 0.0 0.00 0.00 0.00 97 1025.0
20181217030321 48 308 0.0 0.0 0.00 3.67 0.00 97 1024.6
20181217025832 48 325 0.0 0.0 0.00 0.00 0.00 97 1025.0
20181217025821 48 325 0.0 0.0 0.00 3.67 0.00 97 1024.6
20181217025319 48 325 0.0 0.0 0.00 0.00 0.00 98 1025.1
20181217025306 48 325 0.0 0.0 2.70 3.67 0.00 98 1024.7
20181217024824 48 325 0.0 0.0 0.00 0.00 0.00 98 1025.2
20181217024803 48 325 0.0 0.0 5.40 3.67 0.00 98 1024.8
20181217024323 48 325 0.0 0.0 0.00 0.00 0.00 98 1025.2
20181217024256 48 325 0.0 0.0 8.10 3.67 0.00 98 1024.8
20181217023827 48 38 0.0 0.0 0.00 0.00 0.00 98 1025.2
20181217023756 48 51 0.0 0.0 1.08 3.67 0.00 98 1024.8
20181217023329 48 51 0.0 0.0 0.00 0.00 0.00 98 1025.0
20181217023251 48 51 0.0 0.0 1.35 3.67 0.00 98 1024.5
20181217022726 48 51 0.0 0.0 1.62 3.67 0.00 98 1024.5
20181217022328 48 51 0.0 0.0 0.00 0.00 0.00 98 1024.9
20181217022210 48 51 0.0 0.0 1.89 3.70 0.00 98 1024.4
20181217021836 48 51 0.0 0.0 0.00 0.00 0.00 98 1024.8
20181217021710 48 51 0.0 0.0 2.16 3.70 0.00 98 1024.4
20181217021337 48 51 0.0 0.0 0.00 0.00 0.00 98 1024.9
20181217021202 47 51 0.0 0.0 2.43 3.73 0.00 98 1024.4
20181217020834 48 51 0.0 0.0 0.00 0.00 0.00 98 1024.9
20181217020659 47 51 0.0 0.0 2.70 3.75 0.00 98 1024.5
20181217020324 47 51 0.0 0.0 0.00 0.00 0.00 98 1025.0
20181217020201 47 51 0.0 0.0 2.97 3.78 0.00 98 1024.6
20181217015814 47 51 0.0 0.0 0.00 0.00 0.00 98 1025.0
20181217015700 47 51 0.0 0.0 3.24 3.81 0.00 98 1024.6
20181217015332 47 51 0.0 0.0 0.00 0.00 0.00 98 1025.0
20181217015159 47 51 0.0 0.0 3.24 3.81 0.00 98 1024.6
20181217014820 47 51 0.0 0.0 0.00 0.00 0.00 98 1025.0
20181217014700 47 51 0.0 0.0 3.24 3.81 0.00 98 1024.5
20181217014322 47 51 0.0 0.0 0.00 0.00 0.00 98 1024.8
20181217014200 47 51 0.0 0.0 3.24 3.81 0.00 98 1024.4
20181217013833 47 51 0.0 0.0 0.00 0.00 0.00 98 1024.7
20181217013657 47 51 0.0 0.0 3.24 3.81 0.00 98 1024.3
20181217013331 47 51 0.0 0.0 0.00 0.00 0.00 98 1024.6
20181217013151 47 51 0.0 0.0 3.24 3.78 0.00 98 1024.3
20181217012820 47 51 0.0 0.0 0.00 0.00 0.00 98 1024.8
20181217012642 47 51 0.0 0.0 3.24 3.75 0.00 98 1024.4
20181217012329 47 51 0.0 0.0 0.00 0.00 0.00 98 1024.9
20181217012122 47 51 0.0 0.0 3.24 3.73 0.00 98 1024.4
20181217011818 47 51 0.0 0.0 0.00 0.00 0.00 97 1024.8
20181217011619 47 51 0.0 0.0 3.24 3.70 0.00 98 1024.3
20181217011322 48 51 0.0 0.0 0.00 0.00 0.00 98 1024.7
20181217011110 47 51 0.0 0.0 3.24 3.67 0.00 98 1024.3
20181217010830 48 51 0.0 0.0 0.00 0.00 0.00 98 1024.6
20181217010603 47 51 0.0 0.0 3.24 3.64 0.00 98 1024.1
20181217010326 48 51 0.0 0.0 0.00 0.00 0.00 98 1024.5
20181217010102 47 51 0.0 0.0 2.97 3.62 0.00 97 1024.1
20181217005824 48 51 0.0 0.0 0.00 0.00 0.00 97 1024.5
20181217005602 47 51 0.0 0.0 2.70 3.59 0.00 97 1024.2
20181217005318 48 51 0.0 0.0 0.00 0.00 0.00 97 1024.6
20181217005101 48 51 0.0 0.0 2.43 3.56 0.00 97 1024.1
20181217004828 48 51 0.0 0.0 0.00 0.00 0.00 97 1024.6
20181217004600 48 51 0.0 0.0 2.16 3.54 0.00 97 1024.2
20181217004317 48 51 0.0 0.0 0.00 0.00 0.00 97 1024.5
20181217004100 48 51 0.0 0.0 2.16 3.51 0.00 97 1024.1
20181217003822 48 51 0.0 0.0 0.00 0.00 0.00 97 1024.4
20181217003600 48 51 0.0 0.0 2.16 3.48 0.00 97 1024.2
20181217003330 48 51 0.0 0.0 0.00 0.00 0.00 97 1024.6
20181217003056 48 51 0.0 1.0 2.16 3.45 0.00 97 1024.3
20181217002816 48 51 0.0 1.0 0.00 0.00 0.00 97 1024.7
20181217002523 48 51 0.0 1.0 2.16 3.43 0.00 97 1024.3
20181217002324 48 51 0.0 1.0 0.00 0.00 0.00 97 1024.7
20181217002014 48 51 0.0 1.0 1.89 3.37 0.00 96 1024.4
20181217001832 48 51 0.0 1.0 0.00 0.00 0.00 96 1024.8
20181217001504 48 51 0.0 1.0 1.62 3.35 0.00 96 1024.4
20181217001330 48 51 0.0 1.0 0.00 0.00 0.00 96 1024.7
20181217000958 48 51 0.0 0.0 1.35 3.32 0.00 96 1024.2
20181217000816 48 51 0.0 0.0 0.00 0.00 0.00 96 1024.6
20181217000422 48 51 0.0 0.0 1.35 3.32 0.00 96 1024.3
20181217000315 48 51 0.0 0.0 0.00 0.00 0.00 96 1024.7
20181216235919 48 51 0.0 0.0 1.35 3.32 0.00 96 1024.3
20181216235831 49 51 0.0 0.0 0.00 0.00 0.00 96 1024.6
20181216235410 49 51 0.0 0.0 1.35 3.32 0.00 96 1024.3
20181216235324 49 51 0.0 0.0 0.00 0.00 0.00 96 1024.6
20181216234902 49 51 0.0 0.0 1.35 3.32 0.00 95 1024.3
20181216234815 49 51 0.0 0.0 0.00 0.00 0.00 95 1024.6
20181216234343 49 51 0.0 0.0 1.08 3.32 0.00 95 1024.2
20181216234332 49 51 0.0 0.0 0.00 0.00 0.00 95 1024.5
20181216233826 49 51 0.0 0.0 8.10 3.32 0.00 95 1024.1
20181216233819 49 51 0.0 0.0 0.00 0.00 0.00 95 1024.4
20181216233324 50 51 0.0 0.0 0.00 0.00 0.00 95 1024.5
20181216233313 49 51 0.0 0.0 5.40 3.32 0.00 95 1024.2
20181216232822 50 51 0.0 1.0 0.00 0.00 0.00 94 1024.5
20181216232803 50 51 0.0 1.0 2.70 3.32 0.00 94 1024.2
20181216232334 50 51 0.0 1.0 0.00 0.00 0.00 94 1024.5
20181216232256 50 51 0.0 1.0 0.00 3.32 0.00 94 1024.1
20181216231820 50 51 0.0 0.0 0.00 0.00 0.00 93 1024.3
20181216231756 50 51 0.0 0.0 0.00 3.35 0.00 93 1024.0
20181216231337 51 51 0.0 0.0 0.00 0.00 0.00 93 1024.3
20181216231255 51 51 0.0 0.0 0.00 3.37 0.00 93 1024.0
20181216230819 51 51 0.0 0.0 0.00 0.00 0.00 92 1024.4
20181216230754 51 51 0.0 0.0 0.00 3.40 0.00 92 1024.0
20181216230324 52 51 0.0 0.0 0.00 0.00 0.00 91 1024.4
20181216230210 52 51 0.0 0.0 0.00 3.43 0.00 91 1024.1
20181216225832 52 51 0.0 0.0 0.00 0.00 0.00 90 1024.5
20181216225707 52 51 0.0 0.0 0.00 3.43 0.00 90 1024.1
20181216225333 53 51 0.0 0.0 0.00 0.00 0.00 90 1024.4
20181216225158 53 51 0.0 0.0 0.00 3.45 0.00 89 1024.0
20181216224834 53 51 0.0 0.0 0.00 0.00 0.00 89 1024.3
20181216224644 53 51 0.0 0.0 0.00 3.48 0.00 88 1024.0
20181216224330 54 51 0.0 0.0 0.00 0.00 0.00 88 1024.4
20181216224131 54 51 0.0 1.0 0.00 3.51 0.00 87 1024.1
20181216223823 54 51 0.0 1.0 0.00 0.00 0.00 87 1024.4
20181216223628 55 51 0.0 1.0 0.00 3.54 0.00 86 1024.0
20181216223333 55 51 0.0 1.0 0.00 0.00 0.00 85 1024.2
20181216223114 55 53 0.0 1.0 0.00 3.56 0.00 85 1024.0
20181216222834 55 53 0.0 1.0 0.00 0.00 0.00 84 1024.3
20181216222612 56 53 0.0 1.0 0.00 3.59 0.00 84 1024.0
20181216222332 56 53 0.0 1.0 0.00 0.00 0.00 83 1024.3
20181216222058 56 15 0.0 1.0 0.00 3.62 0.00 83 1024.0
20181216221818 57 15 0.0 1.0 0.00 0.00 0.00 82 1024.3
20181216221548 57 15 0.0 1.0 0.00 3.64 0.00 81 1024.0
20181216221328 57 15 0.0 1.0 0.00 0.00 0.00 82 1024.2
20181216221045 56 15 0.0 2.0 0.00 3.67 0.00 81 1024.0
20181216220826 57 269 0.0 2.0 0.00 0.00 0.00 82 1024.3
20181216220514 57 277 0.0 2.0 0.00 3.70 0.00 81 1024.2
20181216220323 57 277 0.0 2.0 0.00 0.00 0.00 81 1024.4
20181216220011 57 249 0.0 3.0 0.00 3.75 0.00 79 1024.0
20181216215828 57 180 0.0 3.0 0.00 0.00 0.00 79 1024.3
20181216215508 58 237 1.0 3.0 0.00 3.78 0.00 79 1024.0
20181216215336 58 239 1.0 3.0 0.00 0.00 0.00 79 1024.2
20181216214958 58 273 1.0 4.0 0.00 3.81 0.00 78 1023.9
20181216214815 58 273 1.0 4.0 0.00 0.00 0.00 78 1024.2
20181216214455 58 275 1.0 4.0 0.00 3.83 0.00 78 1023.9
20181216214317 58 258 0.0 4.0 0.00 0.00 0.00 78 1024.1
20181216213948 58 116 1.0 4.0 0.00 3.86 0.00 77 1023.9
20181216213830 58 271 1.0 2.0 0.00 0.00 0.00 78 1024.1
20181216213444 58 270 1.0 4.0 0.00 3.89 0.00 77 1023.9
20181216213328 59 269 0.0 4.0 0.00 0.00 0.00 77 1024.0
20181216212941 58 335 1.0 4.0 0.00 3.91 0.00 76 1023.8
20181216212838 59 98 1.0 3.0 0.00 0.00 0.00 76 1024.0
20181216212440 59 220 1.0 5.0 0.00 3.94 0.00 76 1023.9
20181216212332 59 248 0.0 5.0 0.00 0.00 0.00 77 1024.1
20181216211926 59 275 1.0 5.0 0.00 3.97 0.00 75 1024.1
20181216211816 59 294 2.0 5.0 0.00 0.00 0.00 75 1024.2
20181216211425 59 227 2.0 5.0 0.00 4.00 0.00 75 1024.0
20181216211324 59 257 1.0 5.0 0.00 0.00 0.00 75 1024.1
20181216210926 59 96 2.0 5.0 0.00 4.02 0.00 75 1024.0
20181216210818 59 267 2.0 5.0 0.00 0.00 0.00 75 1024.1
20181216210421 60 261 1.0 5.0 0.00 4.05 0.00 75 1024.1
20181216210326 60 284 2.0 4.0 0.00 0.00 0.00 75 1024.3
20181216205919 60 310 1.0 5.0 0.00 4.08 0.00 74 1024.1
20181216205819 60 297 1.0 4.0 0.00 0.00 0.00 74 1024.1
20181216205417 60 267 1.0 3.0 0.00 4.10 0.00 75 1024.0
20181216205332 60 232 0.0 3.0 0.00 0.00 0.00 75 1024.0
20181216204918 60 294 1.0 8.0 0.00 4.13 0.00 75 1024.0
20181216204820 60 275 1.0 7.0 0.00 0.00 0.00 76 1024.1
20181216204415 59 104 2.0 8.0 0.00 4.16 0.00 77 1024.0
20181216204315 59 104 1.0 7.0 0.00 0.00 0.00 76 1024.1
20181216203907 59 52 2.0 5.0 0.00 4.18 0.00 76 1024.0
20181216203816 59 263 2.0 4.0 0.00 0.00 0.00 76 1024.1
20181216203406 59 279 1.0 5.0 0.00 4.18 0.00 76 1024.0
20181216203325 59 308 1.0 5.0 0.00 0.00 0.00 76 1024.1
20181216202906 59 260 1.0 5.0 0.00 4.21 0.00 76 1023.9
20181216202830 59 343 1.0 5.0 0.00 0.00 0.00 76 1023.9
20181216202405 59 311 1.0 3.0 0.00 4.24 0.00 76 1023.7
20181216202330 59 261 1.0 3.0 0.00 0.00 0.00 76 1023.7
20181216201906 59 165 1.0 3.0 0.00 4.27 0.00 76 1023.6
20181216201828 59 146 0.0 3.0 0.00 0.00 0.00 76 1023.7
20181216201355 59 331 1.0 5.0 0.00 4.29 0.00 77 1023.7
20181216201328 59 302 0.0 4.0 0.00 0.00 0.00 77 1023.8
20181216200855 59 256 1.0 5.0 0.00 4.32 0.00 76 1023.7
20181216200826 59 72 1.0 5.0 0.00 0.00 0.00 77 1023.8
20181216200356 59 280 2.0 4.0 0.00 4.35 0.00 78 1023.7
20181216200321 58 214 1.0 4.0 0.00 0.00 0.00 78 1023.8
20181216195855 58 311 1.0 4.0 0.00 4.37 0.00 77 1023.7
20181216195820 58 155 2.0 4.0 0.00 0.00 0.00 77 1023.8
20181216195354 58 236 1.0 4.0 0.00 4.40 0.00 79 1023.7
20181216195328 58 241 0.0 4.0 0.00 0.00 0.00 79 1023.8
20181216194848 58 279 2.0 5.0 2.70 4.43 0.00 77 1023.7
20181216194822 58 272 2.0 5.0 0.00 0.00 0.00 77 1023.9
20181216194343 58 297 1.0 5.0 5.40 4.45 0.00 78 1023.7
20181216194322 58 114 2.0 5.0 0.00 0.00 0.00 78 1023.8
20181216193841 58 304 1.0 4.0 5.40 4.48 0.00 78 1023.7
20181216193825 58 329 1.0 3.0 0.00 0.00 0.00 79 1023.9
20181216193342 57 28 2.0 5.0 8.10 4.51 0.00 78 1023.7
20181216193323 57 308 1.0 5.0 0.00 0.00 0.00 79 1023.9
20181216192841 57 261 2.0 5.0 1.08 4.54 0.00 79 1023.7
20181216192817 57 251 2.0 5.0 0.00 0.00 0.00 78 1023.9
20181216192342 57 267 1.0 5.0 1.35 4.56 0.00 80 1023.6
20181216192326 57 297 1.0 5.0 0.00 0.00 0.00 80 1023.8
20181216191841 56 311 2.0 7.0 1.62 4.59 0.00 80 1023.7
20181216191837 56 311 1.0 6.0 0.00 0.00 0.00 80 1023.9
20181216191335 56 71 2.0 7.0 1.89 4.62 0.00 80 1023.6
20181216191324 56 105 3.0 6.0 0.00 0.00 0.00 80 1023.8
20181216190835 56 72 2.0 5.0 2.16 4.64 0.00 81 1023.7
20181216190816 56 111 2.0 5.0 0.00 0.00 0.00 81 1023.9
20181216190334 56 325 2.0 5.0 2.43 4.67 0.00 81 1023.8
20181216190329 56 284 2.0 5.0 0.00 0.00 0.00 81 1024.0
20181216185833 56 269 1.0 4.0 2.70 4.70 0.00 82 1023.7
20181216185828 56 281 1.0 4.0 0.00 0.00 0.00 82 1023.9
20181216185329 55 71 2.0 7.0 2.97 4.73 0.00 82 1023.8
20181216185324 55 61 2.0 7.0 0.00 0.00 0.00 82 1024.0
20181216184833 55 145 2.0 7.0 0.00 0.00 0.00 82 1023.9
20181216184816 55 51 2.0 7.0 2.97 4.73 0.00 81 1023.7
20181216184329 55 123 1.0 7.0 0.00 0.00 0.00 83 1023.9
20181216184309 55 138 2.0 7.0 2.97 4.73 0.00 83 1023.7
20181216183816 55 123 1.0 3.0 0.00 0.00 0.00 82 1024.0
20181216183805 55 123 1.0 3.0 3.24 4.75 0.00 82 1023.8
20181216183332 55 80 1.0 4.0 0.00 0.00 0.00 84 1024.1
20181216183306 55 319 1.0 6.0 3.24 4.75 0.00 84 1023.9
20181216182834 55 317 1.0 6.0 0.00 0.00 0.00 83 1024.2
20181216182803 55 325 2.0 6.0 3.24 4.73 0.00 83 1024.0
20181216182330 55 277 2.0 5.0 0.00 0.00 0.00 82 1024.3
20181216182303 55 307 1.0 6.0 3.24 4.70 0.00 82 1024.1
20181216181819 55 143 2.0 5.0 0.00 0.00 0.00 83 1024.5
20181216181805 55 156 1.0 6.0 3.24 4.67 0.00 83 1024.3
20181216181332 54 71 0.0 3.0 0.00 0.00 0.00 84 1024.5
20181216181303 54 71 1.0 3.0 3.24 4.64 0.00 84 1024.3
20181216180833 54 239 1.0 3.0 0.00 0.00 0.00 84 1024.6
20181216180803 54 239 1.0 6.0 2.97 4.62 0.00 83 1024.4
20181216180334 54 231 1.0 5.0 0.00 0.00 0.00 84 1024.8
20181216180300 54 33 2.0 6.0 2.70 4.59 0.00 84 1024.6
20181216175828 54 75 3.0 6.0 0.00 0.00 0.00 84 1024.9
20181216175757 54 61 2.0 5.0 2.43 4.56 0.00 84 1024.7
20181216175325 54 315 2.0 5.0 0.00 0.00 0.00 84 1025.1
20181216175257 54 65 1.0 5.0 2.16 4.54 0.00 84 1025.0
20181216174830 54 268 1.0 4.0 0.00 0.00 0.00 85 1025.3
20181216174758 54 269 1.0 4.0 1.89 4.51 0.00 85 1025.1
20181216174338 54 48 1.0 4.0 0.00 0.00 0.00 86 1025.3
20181216174255 54 257 1.0 4.0 1.62 4.48 0.00 85 1025.1
20181216173824 54 130 2.0 4.0 0.00 0.00 0.00 84 1025.4
20181216173755 54 295 1.0 4.0 1.35 4.45 0.00 84 1025.2
20181216173318 54 249 1.0 3.0 0.00 0.00 0.00 84 1025.3
20181216173256 54 260 1.0 3.0 1.08 4.43 0.00 84 1025.1
20181216172829 54 269 1.0 3.0 0.00 0.00 0.00 86 1025.2
20181216172747 54 279 1.0 3.0 8.10 4.40 0.00 85 1025.1
20181216172332 54 146 1.0 5.0 0.00 0.00 0.00 85 1025.2
20181216172239 53 102 1.0 6.0 5.40 4.40 0.00 86 1025.0
20181216171817 53 177 1.0 5.0 0.00 0.00 0.00 86 1025.3
20181216171730 53 267 1.0 6.0 2.70 4.40 0.00 86 1025.0
20181216171318 53 283 1.0 3.0 0.00 0.00 0.00 85 1025.4
20181216171225 53 261 1.0 3.0 0.00 4.40 0.00 86 1025.1
20181216170819 53 89 1.0 3.0 0.00 0.00 0.00 86 1025.6
20181216170723 53 296 1.0 3.0 0.00 4.43 0.00 86 1025.3
20181216170335 53 308 1.0 3.0 0.00 0.00 0.00 87 1025.7
20181216170224 53 9 1.0 3.0 0.00 4.45 0.00 87 1025.5
20181216165820 53 273 1.0 3.0 0.00 0.00 0.00 86 1025.8
20181216165715 53 293 1.0 3.0 0.00 4.48 0.00 86 1025.5
20181216165327 53 276 1.0 3.0 0.00 0.00 0.00 87 1025.7
20181216165215 53 247 0.0 3.0 0.00 4.51 0.00 87 1025.4
20181216164820 52 305 0.0 3.0 0.00 0.00 0.00 88 1025.9
20181216164716 52 305 1.0 3.0 0.00 4.54 0.00 88 1025.6
20181216164323 52 28 1.0 3.0 0.00 0.00 0.00 89 1026.1
20181216164206 52 236 1.0 3.0 0.00 4.56 0.00 90 1025.8
20181216163820 52 273 0.0 4.0 0.00 0.00 0.00 90 1026.1
20181216163705 52 294 1.0 4.0 0.00 4.59 0.00 90 1025.8
20181216163330 52 252 0.0 4.0 0.00 0.00 0.00 90 1026.1
20181216163206 52 251 1.0 4.0 0.00 4.62 0.00 89 1025.8
20181216162832 51 169 0.0 3.0 0.00 0.00 0.00 90 1026.1
20181216162705 51 217 1.0 3.0 0.00 4.64 0.00 91 1025.8
20181216162335 51 290 1.0 4.0 0.00 0.00 0.00 90 1026.2
20181216162203 51 224 1.0 4.0 0.00 4.67 0.00 91 1025.8
20181216161829 51 35 1.0 4.0 0.00 0.00 0.00 91 1026.2
20181216161704 51 312 1.0 4.0 0.00 4.70 0.00 90 1026.0
20181216161327 51 285 1.0 4.0 0.00 0.00 0.00 91 1026.3
20181216161159 51 138 1.0 4.0 0.00 4.73 0.00 92 1025.9
20181216160836 51 285 2.0 4.0 0.00 0.00 0.00 91 1026.2
20181216160641 51 269 1.0 4.0 0.00 4.75 0.00 92 1025.8
20181216160324 51 261 1.0 6.0 0.00 0.00 0.00 92 1026.1
20181216160141 51 265 1.0 6.0 0.00 4.78 0.00 92 1025.9
20181216155823 51 250 1.0 6.0 0.00 0.00 0.00 92 1026.1
20181216155641 51 42 1.0 6.0 0.00 4.81 0.00 92 1025.8
20181216155320 50 294 1.0 3.0 0.00 0.00 0.00 92 1026.2
20181216155140 50 260 0.0 3.0 0.00 4.83 0.00 92 1025.8
20181216154831 50 284 0.0 4.0 0.00 0.00 0.00 93 1026.1
20181216154639 50 263 1.0 5.0 0.00 4.86 0.00 93 1025.8
20181216154318 50 109 0.0 4.0 0.00 0.00 0.00 93 1026.2
20181216154133 50 292 1.0 5.0 0.00 4.89 0.00 93 1025.9
20181216153818 50 119 1.0 4.0 0.00 0.00 0.00 93 1026.1
20181216153629 50 315 0.0 2.0 0.00 4.89 0.00 94 1025.8
20181216153318 50 232 0.0 3.0 0.00 0.00 0.00 94 1026.2
20181216153127 50 226 0.0 3.0 0.00 4.91 0.00 94 1026.0
20181216152826 50 34 0.0 4.0 0.00 0.00 0.00 94 1026.4
20181216152619 50 270 1.0 4.0 0.00 4.94 0.00 94 1026.0
20181216152325 50 281 0.0 4.0 0.00 0.00 0.00 94 1026.2
20181216152111 50 281 1.0 4.0 0.00 4.97 0.00 94 1025.9
20181216151827 50 300 1.0 3.0 0.00 0.00 0.00 94 1026.2
20181216151607 50 275 1.0 3.0 0.00 5.00 0.00 94 1025.8
20181216151323 50 273 0.0 3.0 0.00 0.00 0.00 94 1026.1
20181216151103 49 274 1.0 3.0 0.00 5.02 0.00 94 1025.8
20181216150559 49 295 0.0 3.0 0.00 5.05 0.00 94 1025.8
20181216150321 50 350 1.0 2.0 0.00 0.00 0.00 94 1026.0
20181216150100 49 281 1.0 2.0 0.00 5.08 0.00 95 1025.6
20181216145555 49 344 1.0 2.0 0.00 5.08 0.00 95 1025.5
20181216145330 49 94 1.0 2.0 0.00 0.00 0.00 95 1025.8
20181216145051 49 250 0.0 2.0 0.00 5.08 0.00 95 1025.3
20181216144831 49 257 0.0 2.0 0.00 0.00 0.00 95 1025.6
20181216144547 49 236 0.0 3.0 0.00 5.08 0.00 95 1025.3
20181216144332 49 272 1.0 3.0 0.00 0.00 0.00 95 1025.7
20181216144047 49 291 1.0 5.0 0.00 5.08 0.00 95 1025.3
20181216143829 49 265 0.0 5.0 0.00 0.00 0.00 95 1025.6
20181216143535 49 265 1.0 5.0 0.00 5.08 0.00 95 1025.2
20181216143333 49 266 1.0 4.0 0.00 0.00 0.00 95 1025.5
20181216143035 49 262 1.0 4.0 0.00 5.08 0.00 95 1025.2
20181216142827 49 38 2.0 4.0 0.00 0.00 0.00 95 1025.5
20181216142532 49 269 1.0 4.0 0.00 5.08 0.00 96 1025.1
20181216142335 49 273 1.0 4.0 0.00 0.00 0.00 96 1025.4
20181216142023 49 270 1.0 4.0 0.00 5.08 0.00 96 1025.0
20181216141825 49 286 1.0 4.0 0.00 0.00 0.00 96 1025.3
20181216141519 49 270 1.0 2.0 0.00 5.08 0.00 96 1025.0
20181216141328 49 267 1.0 2.0 0.00 0.00 0.00 96 1025.2
20181216141013 49 271 1.0 2.0 0.00 5.08 0.00 96 1024.9
20181216140818 49 272 0.0 2.0 0.00 0.00 0.00 97 1025.2
20181216140513 49 272 1.0 2.0 0.00 5.08 0.00 97 1024.7
20181216140331 49 298 1.0 2.0 0.00 0.00 0.00 97 1024.9
20181216140012 49 285 0.0 2.0 0.00 5.08 0.00 97 1024.6
20181216135835 49 283 0.0 2.0 0.00 0.00 0.00 97 1024.8
20181216135507 49 261 0.0 2.0 0.00 5.08 0.00 97 1024.4
20181216135323 48 261 0.0 3.0 0.00 0.00 0.00 97 1024.7
20181216135005 48 281 0.0 3.0 0.00 5.08 0.00 97 1024.3
20181216134822 48 281 0.0 3.0 0.00 0.00 0.00 98 1024.7
20181216134458 48 281 0.0 3.0 0.00 5.08 0.00 98 1024.3
20181216134322 48 242 0.0 1.0 0.00 0.00 0.00 98 1024.6
20181216133953 48 271 0.0 2.0 0.00 5.08 0.00 98 1024.2
20181216133816 48 265 0.0 2.0 0.00 0.00 0.00 98 1024.5
20181216133451 48 292 0.0 2.0 0.00 5.08 0.00 98 1024.1
20181216133323 48 292 0.0 2.0 0.00 0.00 0.00 98 1024.5
20181216132920 48 292 0.0 1.0 0.00 5.08 0.00 98 1024.1
20181216132820 48 293 0.0 1.0 0.00 0.00 0.00 98 1024.5
20181216132413 48 293 0.0 2.0 2.70 5.08 0.00 98 1024.0
20181216132333 48 293 0.0 2.0 0.00 0.00 0.00 98 1024.5
20181216131913 48 306 0.0 2.0 5.40 5.08 0.00 98 1024.0
20181216131831 48 306 0.0 2.0 0.00 0.00 0.00 98 1024.4
20181216131339 48 237 0.0 2.0 8.10 5.08 0.00 98 1024.0
20181216131328 48 272 0.0 2.0 0.00 0.00 0.00 98 1024.4
20181216130835 48 224 0.0 1.0 1.08 5.08 0.00 98 1024.2
20181216130831 48 223 0.0 1.0 0.00 0.00 0.00 98 1024.6
20181216130335 48 295 0.0 1.0 1.35 5.08 0.00 98 1024.2
20181216130332 48 295 0.0 1.0 0.00 0.00 0.00 98 1024.6
20181216125837 48 295 0.0 1.0 0.00 0.00 0.00 98 1024.5
20181216125826 48 295 0.0 1.0 1.62 5.08 0.00 98 1024.1
20181216125325 48 301 0.0 0.0 0.00 0.00 0.00 98 1024.4
20181216125301 48 301 0.0 0.0 1.89 5.08 0.00 98 1024.0
20181216124830 48 301 0.0 0.0 0.00 0.00 0.00 98 1024.2
20181216124801 48 301 0.0 0.0 2.16 5.08 0.00 98 1023.8
20181216124317 48 301 0.0 0.0 0.00 0.00 0.00 98 1024.1
20181216124301 48 301 0.0 0.0 2.43 5.08 0.00 98 1023.8
20181216123830 48 301 0.0 1.0 0.00 0.00 0.00 98 1024.2
20181216123801 48 301 0.0 1.0 2.70 5.08 0.00 98 1023.7
20181216123330 48 301 0.0 1.0 0.00 0.00 0.00 97 1024.1
20181216123259 48 301 0.0 1.0 2.97 5.08 0.00 97 1023.6
20181216122815 48 230 0.0 1.0 0.00 0.00 0.00 97 1024.0
20181216122759 48 230 0.0 1.0 3.24 5.08 0.00 97 1023.6
20181216122335 48 230 0.0 0.0 0.00 0.00 0.00 97 1024.0
20181216122300 48 230 0.0 0.0 3.24 5.05 0.00 97 1023.6
20181216121822 48 230 0.0 0.0 0.00 0.00 0.00 97 1023.9
20181216121757 48 230 0.0 0.0 3.24 5.02 0.00 97 1023.5
20181216121322 48 230 0.0 0.0 0.00 0.00 0.00 97 1023.9
20181216121258 48 230 0.0 1.0 3.24 5.00 0.00 97 1023.5
20181216120827 48 231 0.0 1.0 0.00 0.00 0.00 97 1023.8
20181216120757 48 230 0.0 1.0 3.24 4.97 0.00 97 1023.4
20181216120335 48 230 0.0 1.0 0.00 0.00 0.00 97 1023.7
20181216120257 48 230 0.0 1.0 3.24 4.94 0.00 97 1023.3
20181216115817 48 230 0.0 1.0 0.00 0.00 0.00 96 1023.8
20181216115757 48 230 0.0 1.0 3.24 4.91 0.00 96 1023.4
20181216115325 48 229 0.0 1.0 0.00 0.00 0.00 96 1023.7
20181216115251 47 230 0.0 1.0 3.24 4.89 0.00 96 1023.3
20181216114833 48 229 0.0 0.0 0.00 0.00 0.00 97 1023.6